Winnipeg, Manitoba

5:23 AM CST on December 07, 2016 (GMT -0600)
Winnipeg International Airport

Weather History for CYWG - January, 2013

Change the Weather History Date:

Tuesday, January 8, 2013

  Actual Average Record
Temperature  
Mean Temperature 22 °F -  
Max Temperature 34 °F 8 °F 41 °F (2002)
Min Temperature 11 °F -4 °F -27 °F (2014)
Degree Days  
Heating Degree Days 42    
Moisture  
Dew Point 20 °F    
Average Humidity 85    
Maximum Humidity 100    
Minimum Humidity 72    
Precipitation  
Precipitation 0.02 in - - ()
Sea Level Pressure  
Sea Level Pressure 29.64 in    
Wind  
Wind Speed 16 mph ()    
Max Wind Speed 30 mph    
Max Gust Speed 38 mph    
Visibility 9.9 miles    
Events Snow    
Averages and records for this station are not official NWS values.
T = Trace of Precipitation, MM = Missing Value Source: Averaged Metar Reports

Daily Weather History Graph

Daily Weather History Graph

Search for Another Location

Airport or City:

Trip Planner

Search our weather history database for the weather conditions in past years. The results will help you decide how hot, cold, wet, or windy it might be!

Date:

Astronomy

Jan. 08, 2013 Rise Set
Actual Time 8:25 AM CST 4:46 PM CST
Civil Twilight 7:47 AM CST 5:24 PM CST
Nautical Twilight 7:06 AM CST 6:05 PM CST
Astronomical Twilight 6:27 AM CST 6:44 PM CST
Moon 4:57 AM CST (1/8) 1:51 PM CST (1/8)
Length of Visible Light 9h 36m
Length of Day
8h 21m
Waning Crescent, 13% of the Moon is Illuminated
Jan 8
Waning Crescent
Jan 11
New
Jan 18
First Quarter
Jan 26
Full
Feb 3
Last Quarter

Hourly Weather History & Observations

Time (CST) Temp. Windchill Dew Point Humidity Pressure Visibility Wind Dir Wind Speed Gust Speed Precip Events Conditions
12:00 AM 28 °F - 23 °F 72% 29.79 in 9 mi Calm Calm - -   Overcast
12:00 AM 28.4 °F 18.0 °F 23.0 °F 80% 29.79 in 15.0 mi SW 12.7 mph - N/A   Overcast
1:00 AM 26.6 °F 16.2 °F 21.2 °F 80% 29.79 in 15.0 mi West 11.5 mph - N/A   Overcast
2:00 AM 19.4 °F 8.6 °F 15.8 °F 86% 29.78 in 15.0 mi SW 9.2 mph - N/A   Scattered Clouds
3:00 AM 17.6 °F 6.4 °F 12.2 °F 79% 29.80 in 15.0 mi SSW 9.2 mph - N/A   Scattered Clouds
4:00 AM 14.0 °F 1.2 °F 10.4 °F 86% 29.80 in 15.0 mi South 10.4 mph - N/A   Partly Cloudy
5:00 AM 12.2 °F -0.2 °F 8.6 °F 85% 29.78 in 15.0 mi South 9.2 mph - N/A   Clear
6:00 AM 11 °F - 9 °F 87% 29.76 in 9 mi Calm Calm - -  
6:00 AM 12.2 °F -2.5 °F 8.6 °F 85% 29.76 in 15.0 mi South 12.7 mph - N/A   Partly Cloudy
7:00 AM 14.0 °F -2.0 °F 10.4 °F 86% 29.73 in 15.0 mi South 16.1 mph - N/A   Partly Cloudy
8:00 AM 14.0 °F -3.4 °F 10.4 °F 86% 29.72 in 15.0 mi South 19.6 mph - N/A   Scattered Clouds
9:00 AM 17.6 °F 0.1 °F 14.0 °F 86% 29.69 in 15.0 mi South 23.0 mph - N/A   Mostly Cloudy
10:00 AM 23.0 °F 7.2 °F 17.6 °F 80% 29.68 in 15.0 mi South 23.0 mph - N/A   Mostly Cloudy
10:49 AM 24.8 °F 9.0 °F - N/A% - 15.0 mi South 25.3 mph 34.5 mph N/A Snow Light Snow
11:00 AM 24.8 °F 7.9 °F 21.2 °F 86% 29.65 in 12.0 mi South 29.9 mph 38.0 mph N/A Snow Light Snow
11:38 AM 24.8 °F 8.7 °F - N/A% - 2.0 mi South 26.5 mph 35.7 mph N/A Snow Light Snow
11:48 AM 24.8 °F 9.6 °F - N/A% - 2.0 mi South 23.0 mph 31.1 mph N/A Snow Light Snow
12:00 PM 25 °F - 23 °F 90% 29.60 in 1 mi Calm Calm - -   Unknown Precipitation
12:00 PM 24.8 °F 8.1 °F 23.0 °F 93% 29.60 in 1.5 mi South 28.8 mph 34.5 mph N/A Snow Light Snow
12:14 PM 24.8 °F 8.1 °F - N/A% - 2.0 mi South 28.8 mph 36.8 mph N/A Snow Light Snow
12:20 PM 26.6 °F 11.1 °F - N/A% - 0.8 mi South 26.5 mph 36.8 mph N/A Snow Light Snow
12:43 PM 26.6 °F 11.1 °F - N/A% - 1.5 mi South 26.5 mph - N/A Snow Light Snow
1:00 PM 28.4 °F 13.0 °F 26.6 °F 93% 29.54 in 3.0 mi South 28.8 mph 35.7 mph N/A Snow Light Snow
1:13 PM 28.4 °F 13.3 °F - N/A% - 2.0 mi South 27.6 mph 36.8 mph N/A Snow Light Snow
1:28 PM 28.4 °F 13.5 °F - N/A% - 0.8 mi South 26.5 mph 38.0 mph N/A Snow Light Snow
2:00 PM 28.4 °F 14.7 °F 28.4 °F 100% 29.52 in 1.5 mi South 21.9 mph - N/A Snow Light Snow
2:09 PM 30.2 °F 15.7 °F - N/A% - 1.5 mi South 27.6 mph - N/A Snow Light Snow
2:19 PM 30.2 °F 16.2 °F - N/A% - 1.5 mi South 25.3 mph - N/A Snow Light Snow
2:37 PM 28.4 °F 14.1 °F - N/A% - 15.0 mi South 24.2 mph - N/A Snow Low Drifting Snow
3:00 PM 30.2 °F 17.1 °F 28.4 °F 93% 29.51 in 15.0 mi South 21.9 mph - N/A Snow Low Drifting Snow
4:00 PM 32.0 °F 20.8 °F 30.2 °F 93% 29.51 in 15.0 mi SSW 17.3 mph - N/A   Mostly Cloudy
5:00 PM 33.8 °F 23.9 °F 30.2 °F 87% 29.52 in 15.0 mi WSW 15.0 mph - N/A   Mostly Cloudy
6:00 PM 32 °F - 26 °F 72% 29.52 in 9 mi Calm Calm - -   Overcast
6:00 PM 32.0 °F 22.5 °F 26.6 °F 80% 29.52 in 15.0 mi SW 12.7 mph - N/A   Mostly Cloudy
7:00 PM 32.0 °F 23.0 °F 26.6 °F 80% 29.52 in 15.0 mi SSW 11.5 mph - N/A   Mostly Cloudy
8:00 PM 32.0 °F 20.1 °F 26.6 °F 80% 29.52 in 15.0 mi SW 19.6 mph - N/A   Mostly Cloudy
9:00 PM 30.2 °F 18.9 °F 24.8 °F 80% 29.51 in 15.0 mi SW 16.1 mph - N/A   Mostly Cloudy
10:00 PM 30.2 °F 18.5 °F 24.8 °F 80% 29.50 in 15.0 mi WSW 17.3 mph - N/A   Overcast
11:00 PM 26.6 °F 13.8 °F 23.0 °F 86% 29.54 in 15.0 mi NW 17.3 mph - N/A   Overcast
11:28 PM 24.8 °F 11.5 °F - N/A% - 5.0 mi WNW 17.3 mph - N/A Snow Light Snow